sat.trackr.live / text

‹ back to catalog

STARLINK-4179

NORAD 53275 · 2022-086AK

PAYLOAD ACTIVE UNKNOWN

§ Identity

Operator
Country
US
Launch date
2022-07-24
Launch site
AFETR
Launch vehicle
Mass (kg)
RCS (m²)

Purposes: comms

External: N2YO · Heavens-Above · Gunter

§ Orbital elements

Epoch: 2026-05-25T03:11:49.299072Z

Period
95.44 min
Inclination
53.2133°
Eccentricity
0.0001014
Mean motion
15.08825463 rev/d
Perigee alt
539.1 km
Apogee alt
540.5 km
Semi-major
6,917.9 km
B*
3.3588e-6
RAAN
200.9501°
Arg perigee
73.9310°
Mean anomaly
286.1794°
Rev number
21,273

§ Raw data

STARLINK-41791 53275U 22086AK  26145.13320948 -.00000234  00000+0  33588-5 0  99992 53275  53.2133 200.9501 0001014  73.9310 286.1794 15.08825463212731

JSON: /api/v1/satellites/53275 · /tle

For live sub-satellite position, see the globe view (requires WebGL).

§ Visibility from observer

Set your observer location to see the next 7 days of passes ≥ 10°. The values pass through the URL so the page stays shareable.

No JS? Fill the form by hand. The geolocation button needs JavaScript.